This is the latest recevied weather packets stored in our database for station/object AE5TC. If no packets are shown the sender has not sent any weather packets the latest 10 day(s).
| Time | Temp. | Humidity | Pressure | Rain* | Wind** | Luminosity | Snow |
|---|---|---|---|---|---|---|---|
| 1778106499 | 26.67° C | 80% | 1013.9 hPa | 0 mm | - | 205 W/m² | - |
| 1778106194 | 27.22° C | 80% | 1013.9 hPa | 0 mm | - | 221 W/m² | - |
| 1778105887 | 26.67° C | 81% | 1014 hPa | 0 mm | - | 236 W/m² | - |
| 1778105584 | 27.22° C | 81% | 1014 hPa | 0 mm | - | 252 W/m² | - |
| 1778105282 | 27.22° C | 80% | 1014.4 hPa | 0 mm | - | 268 W/m² | - |
| 1778104982 | 27.22° C | 80% | 1014.3 hPa | 0 mm | - | 282 W/m² | - |
| 1778104679 | 27.22° C | 82% | 1014.2 hPa | 0 mm | - | 301 W/m² | - |
| 1778104374 | 27.78° C | 79% | 1014.5 hPa | 0 mm | - | 317 W/m² | - |
| 1778104071 | 27.78° C | 78% | 1014.6 hPa | 0 mm | - | 334 W/m² | - |
| 1778103768 | 27.22° C | 79% | 1014.3 hPa | 0 mm | - | 351 W/m² | - |
| 1778103466 | 27.22° C | 81% | 1014.4 hPa | 0 mm | - | 366 W/m² | - |
| 1778103163 | 27.78° C | 80% | 1014.5 hPa | 0 mm | - | 371 W/m² | - |
| 1778102860 | 27.22° C | 81% | 1014.4 hPa | 0 mm | - | 399 W/m² | - |
| 1778102556 | 27.78° C | 79% | 1014.5 hPa | 0 mm | - | 414 W/m² | - |
| 1778102245 | 28.33° C | 78% | 1014.6 hPa | 0 mm | - | 429 W/m² | - |
| 1778101942 | 27.78° C | 77% | 1014.5 hPa | 0 mm | - | 447 W/m² | - |
| 1778101633 | 27.78° C | 77% | 1014.4 hPa | 0 mm | - | 463 W/m² | - |
| 1778101331 | 27.78° C | 80% | 1014.5 hPa | 0 mm | - | 472 W/m² | - |
| 1778101028 | 27.78° C | 80% | 1014.5 hPa | 0 mm | - | 494 W/m² | - |
| 1778100728 | 27.78° C | 80% | 1014.6 hPa | 0 mm | - | 513 W/m² | - |
| 1778100425 | 27.78° C | 81% | 1014.5 hPa | 0 mm | - | 525 W/m² | - |
| 1778100122 | 28.33° C | 78% | 1014.6 hPa | 0 mm | - | 536 W/m² | - |
| 1778099821 | 27.78° C | 81% | 1014.7 hPa | 0 mm | - | 553 W/m² | - |
| 1778099517 | 28.89° C | 77% | 1014.9 hPa | 0 mm | - | 80 W/m² | - |
| 1778099215 | 28.89° C | 78% | 1014.8 hPa | 0 mm | - | 576 W/m² | - |
* Rain latest hour (hover to see other rain measurements)
** Current wind speed in m/s (hover to see current wind gust speed)